Content
SEND FEEDBACK

Daily
Averages
Monthly
Summary
Mexico

CANCUN, QUINTANA ROO


Home > North America > Mexico > Quintana Roo
Elevation: 30 feet     Latitude: 21 09N     Longitude: 086 49W

WEATHER
 
SELECT A DAY
Number of Records: 167,736;   Date Range: 1/1/95 - 12/17/14
 
SHARE

PRINT THIS DATA

[ ← Previous Day ]
WEATHER ALMANAC - JANUARY 18, 2013
[ Next Day → ]
[ °C ]   °F
Weather ElementAverageHighLow
Temperature69.5 °F73.4 °F (10:44 am)66.2 °F (10:47 pm)
Dewpoint59 °F60.8 °F (7:47 am)57.2 °F (4:44 am)
Humidity69.7 %83 % (10:47 pm)57 % (12:42 pm)
Barometer30.20 in30.25 in (9:43 am)30.15 in (2:46 pm)
Wind Speed7.5 mph12.7 mph (9:43 am)
Weather ElementAverage
Visibility6.5 mi
Wind DirectionNW (310.9 °)

Weather ElementTotal
Precipitation---
Cooling Degree Days4.8 (Base 65)
Growing Degree Days19.8 (Base 50)
Averaged from 23 records on January 18, 2013
WEATHER CONDITIONS BREAKOUT
WIND DIRECTION BREAKOUT
WEATHER BY HOUR - JANUARY 18, 2013
[ °C ]   °F
Local TimeTemperatureDewpointHumidityBarometerVisibilityWind DirectionWind SpeedGust SpeedPrecipitationEventsConditions
1:44 AM68.0 °F59.0 °F73 %30.18 in6.0 miNNE (20°)8.1 mphOvercast
2:46 AM68.0 °F59.0 °F73 %30.17 in6.0 miNorth (360°)9.2 mphOvercast
3:45 AM68.0 °F59.0 °F73 %30.17 in6.0 miNorth (350°)8.1 mphOvercast
4:44 AM68.0 °F57.2 °F68 %30.18 in6.0 miNNW (330°)6.9 mphOvercast
5:43 AM68.0 °F57.2 °F68 %30.18 in6.0 miNNE (20°)5.8 mphOvercast
6:42 AM68.0 °F57.2 °F68 %30.22 in6.0 miNNW (340°)5.8 mphOvercast
7:47 AM68.0 °F60.8 °F78 %30.23 in6.0 miNW (320°)6.9 mphMostly Cloudy
8:46 AM69.8 °F60.8 °F73 %30.23 in6.0 miNNW (340°)6.9 mphMostly Cloudy
9:43 AM71.6 °F59.0 °F64 %30.25 in6.0 miNNW (340°)12.7 mphMostly Cloudy
10:44 AM73.4 °F59.0 °F61 %30.24 in6.0 miNorth (350°)10.4 mphOvercast
11:43 AM71.6 °F59.0 °F64 %30.22 in6.0 miNNW (340°)10.4 mphOvercast
12:42 PM73.4 °F57.2 °F57 %30.18 in7.0 miNNW (340°)12.7 mphOvercast
1:44 PM73.4 °F57.2 °F57 %30.16 in7.0 miNNW (340°)10.4 mphOvercast
2:46 PM73.4 °F57.2 °F57 %30.15 in7.0 miNorth (350°)9.2 mphOvercast
3:40 PM71.6 °F57.2 °F60 %30.16 in7.0 miNorth (350°)5.8 mphOvercast
4:44 PM69.8 °F59.0 °F68 %30.17 in7.0 miNNW (330°)5.8 mphOvercast
5:49 PM69.8 °F59.0 °F68 %30.18 in7.0 miNNW (340°)5.8 mphOvercast
6:40 PM68.0 °F59.0 °F73 %30.19 in7.0 miNNW (340°)6.9 mphOvercast
7:48 PM68.0 °F60.8 °F78 %30.21 in7.0 miNorth (350°)4.6 mphMostly Cloudy
8:45 PM68.0 °F60.8 °F78 %30.22 in7.0 miNNW (340°)4.6 mphMostly Cloudy
9:48 PM68.0 °F60.8 °F78 %30.22 in7.0 miNNW (330°)5.8 mphMostly Cloudy
10:47 PM66.2 °F60.8 °F83 %30.20 in7.0 miNW (320°)5.8 mphMostly Cloudy
11:47 PM66.2 °F60.8 °F83 %30.18 in7.0 miNW (310°)4.6 mphMostly Cloudy
Hourly data recorded from MMUN, located miles away from Cancun, Quintana Roo







STORIES FROM OUR PARTNERS